Regional Weather Roundup
Issued by NWS

Home | Current Version | Previous Version | Text Only | Print | Product List | Glossary On
Versions: 1 2 3 4 5 6 7 8 9 10 11 12 13 14 15 16 17 18 19 20 21 22 23 24 25 26 27 28 29 30 31 32 33 34 35 36 37 38 39 40 41 42 43 44 45 46 47 48 49 50
000
ASUS44 KFWD 011415
RWRTX
NORTH TEXAS HOURLY WEATHER ROUNDUP
NATIONAL WEATHER SERVICE FORT WORTH TX
900 AM CDT MON SEP 01 2014

NOTE: "FAIR" INDICATES FEW OR NO CLOUDS BELOW 12,000 FEET WITH NO
SIGNIFICANT WEATHER AND/OR OBSTRUCTIONS TO VISIBILITY.

TXZ118-119-011500-
DALLAS/FORT WORTH METROPLEX

CITY           SKY/WX    TMP DP  RH WIND       PRES   REMARKS
DFW AIRPORT    PTSUNNY   81  72  74 S22       29.91S
DALLAS LOVE    MOSUNNY   82  72  71 S14       29.92S
FTW MEACHAM    MOSUNNY   82  72  71 S14G21    29.91R
DAL-EXECUTIVE  PTSUNNY   81  72  74 S12G21    29.92S
FTW-ALLIANCE   MOSUNNY   81  72  74 S10G20    29.91R
FTW-NAS-JRB    MOSUNNY   83  71  67 S21G29    29.95S
FTW-SPINKS     MOSUNNY   81  73  78 S13G18    29.93R
ARLINGTON      PTSUNNY   80  72  76 S16G22    29.92R
GRAND PRAIRIE  PTSUNNY   81  72  74 MISG      29.93S
ADDISON        PTSUNNY   81  72  74 S12G21    29.93R
LANCASTER      CLOUDY    79  72  78 S8        29.94S
$$

TXZ091>094-102>105-117-120-121-131>134-011500-
NORTH CENTRAL TEXAS

CITY           SKY/WX    TMP DP  RH WIND       PRES   REMARKS
SHRMAN/DENISON MOSUNNY   80  71  74 S16G22    29.93S
GAINESVILLE    MOSUNNY   78  72  82 S16G23    29.92S
BOWIE          SUNNY     79  72  78 S13       29.90S
BRIDGEPORT     SUNNY     80  68  67 S15       29.92S
DECATUR        SUNNY     78  71  78 S14       29.92S
DENTON         PTSUNNY   81  72  74 S16G22    29.92R
MCKINNEY       PTSUNNY   80  72  76 S12       29.93S
GREENVILLE     MOSUNNY   81  72  74 S13       29.95S
ROCKWALL       CLOUDY    80  73  80 S17       29.93R
TERRELL        PTSUNNY   82  75  79 S13G20    29.94S
WAXAHACHIE     CLOUDY    79  71  77 S13       29.94S
CLEBURNE       PTSUNNY   81  75  83 S13G18    29.94S
GRANBURY       SUNNY     82  71  69 S14G21    29.92S
$$

TXZ083>090-098>101-113>116-127>130-139>142-154-155-011500-
WESTERN NORTH TEXAS

CITY           SKY/WX    TMP DP  RH WIND       PRES   REMARKS
WICHITA FALLS  SUNNY     81  70  69 S20       29.84S
WF-KICKAPOO    SUNNY     82  68  64 S16G23    29.87S
VERNON         SUNNY     82  69  64 S15       29.84S
ABILENE        MOSUNNY   79  69  71 S16G25    29.91S
ABILENE-DYESS  SUNNY     79  70  73 S18G24    29.90R
BRECKENRIDGE   SUNNY     82  68  63 S16       29.91R HAZE
GRAHAM         SUNNY     80  69  67 S9G17     29.88S
MINERAL WELLS  SUNNY     80  71  74 S13       29.90R
STEPHENVILLE   MOSUNNY   78  70  76 S13G20    29.96S
COMANCHE         N/A     78  69  73 S16G23    29.94S
BROWNWOOD      SUNNY     77  68  73 S14G20    29.94F
COLEMAN        SUNNY     78  67  69 S15       29.94F
BRADY          SUNNY     77  68  73 S14       29.95S
$$

TXZ143>147-156>162-174-175-011500-
CENTRAL TEXAS

CITY           SKY/WX    TMP DP  RH WIND       PRES   REMARKS
WACO           CLOUDY    80  74  81 S16       29.93S
WACO-TSTC      PTSUNNY   81  73  78 S12       29.94S
WACO-MCGREGOR  CLOUDY    79  72  78 S16       29.95S
HILLSBORO      PTSUNNY   80  73  78 S15       29.94S
CORSICANA      CLOUDY    80  74  81 S14G22    29.95S
MEXIA          CLOUDY    79  75  86 S10G16    29.94F
HEARNE           N/A     78  75  90 SE7       29.96S
CAMERON        PTSUNNY   82  75  81 S10       29.95S
TEMPLE         CLOUDY    81  72  74 S16       29.94S
KILLEEN        PTSUNNY   81  73  78 S21G26    29.94F
KILLEEN-SKYLRK CLOUDY    79  70  73 S10       29.93F
FORT HOOD      PTSUNNY   82  73  74 SE15      29.94S
GATESVILLE     MOSUNNY   81  72  74 S12G20    29.96S
LAMPASAS       PTSUNNY   78  73  84 S9G16     29.95S
$$

TXZ095>097-106>112-122>126-135>138-148>153-164>167-011500-
EAST TEXAS

CITY           SKY/WX    TMP DP  RH WIND       PRES   REMARKS
PARIS          CLOUDY    79  68  69 S15G21    29.96S
SULPHUR SPRNGS PTSUNNY   80  73  77 S13       29.97S
MOUNT PLEASANT PTSUNNY   80  73  78 S9        29.98S
GILMER         MOSUNNY   81  75  83 S12       29.98F
MINEOLA        CLOUDY    79  73  83 S8        29.97S
TYLER          CLOUDY    80  73  79 S10       29.96S
LONGVIEW       PTSUNNY   82  74  76 S10       29.97S
MARSHALL       PTSUNNY   82  76  81 S8        30.00S HX  90
ATHENS         CLOUDY    77  73  88 S6        29.96R
PALESTINE      CLOUDY    79  75  88 S9        29.98S
JACKSONVILLE   PTSUNNY   78  75  89 S9        30.00F
HENDERSON      CLOUDY    79  75  86 S7        29.98F
NACOGDOCHES    CLOUDY    81  75  83 S9        29.99S
LUFKIN         CLOUDY    80  76  87 S8        29.99S
$$

SUPPLEMENTAL OBSERVATIONS (CENTRAL)

CITY           SKY/WX    TMP DP  RH WIND       PRES   REMARKS
LAKE TEXOMA      N/A     79  70  73 S12         N/A
PAT MAYSE LAKE   N/A     79  73  83 SE14        N/A
PALESTINE        N/A     81  75  83 S8          N/A
LAKE LIMESTONE   N/A     79  73  83 S7          N/A
MCGREGOR         N/A     81  73  78 S15         N/A
TEMPLE           N/A     79  75  89 S12         N/A
$$

SUPPLEMENTAL OBSERVATIONS (WEST)

CITY           SKY/WX    TMP DP  RH WIND       PRES   REMARKS
MILLERS CREEK    N/A     81  70  69 S17G23      N/A
POSSUM KINGDOM   N/A     81  68  65 S14         N/A
GRANBURY         N/A     82  72  69 S17         N/A
COMANCHE         N/A     81  72  74 S15G24      N/A
HAMBY            N/A     81  70  69 S20G26      N/A
COLORADO BEND    N/A     79  68  69 S10         N/A
$$

SUPPLEMENTAL OBSERVATIONS (EAST)

CITY           SKY/WX    TMP DP  RH WIND       PRES   REMARKS
CLARKSVILLE      N/A     79  73  83 S13         N/A
TEXARKANA        N/A     81  73  78 S5          N/A
LINDEN           N/A     81  73  78 S5          N/A
CADDO LAKE       N/A     82  77  83 S6          N/A  HX  91
GILMER           N/A     81  73  78 S7          N/A
HENDERSON        N/A     81  73  78 SW10        N/A
LUFKIN           N/A     79  73  83 MISG        N/A
N SABINE NF      N/A     79  73  83 MISG        N/A
S SABINE NF      N/A     82  77  83 SE2         N/A  HX  91
$$

SUPPLEMENTAL OBSERVATIONS ARE A COLLECTION OF AUTOMATED INSTRUMENTS
THAT ARE MAINTAINED BY A VARIETY OF FEDERAL AND STATE AGENCIES.
CERTAIN ELEMENTS...SUCH AS HUMIDITY VALUES AND SUSTAINED WIND
SPEEDS...MAY BE APPROXIMATED.



USA.gov is the U.S. government's official web portal to all federal, state and local government web resources and services.